User: anonymous   Login
Location: Trondheim
(63.4170°N, 10.4170°E)
Time: 13:54:44
(UTC+01:00)
Language:

Iridium 82 - Orbit

View from above orbital plane
View from above orbital plane
View from above satellite
View from above satellite

Ground track
Ground track

The orbit data is extracted from the following two-line orbital elements,

1 25467U 98051A   16040.49165963 -.00000046  00000-0 -23415-4 0  9992
2 25467  86.3949 228.4519 0002253  87.7312 272.4141 14.34216947915856
Epoch (UTC): 09 February 2016 11:47:59
Eccentricity: 0.0002253
inclination: 86.3949°
perigee height: 776 km
apogee height: 779 km
right ascension of ascending node: 228.4519°
argument of perigee: 87.7312°
revolutions per day: 14.34216947
mean anomaly at epoch: 272.4141°
orbit number at epoch: 91585

The dashed part of the orbit path shows where the satellite is in the earth's shadow,  

DLR